This is the latest recevied weather packets stored in our database for station/object K9RJT. If no packets are shown the sender has not sent any weather packets the latest 10 day(s).
| Time | Temp. | Humidity | Pressure | Rain* | Wind** | Luminosity | Snow |
|---|---|---|---|---|---|---|---|
| 1777950738 | 21.11° C | 36% | 1004.8 hPa | 0 mm | - | 3 W/m² | - |
| 1777950435 | 21.11° C | 36% | 1004.8 hPa | 0 mm | - | 5 W/m² | - |
| 1777950131 | 21.67° C | 35% | 1004.9 hPa | 0 mm | - | 7 W/m² | - |
| 1777949827 | 21.67° C | 34% | 1004.7 hPa | 0 mm | - | 9 W/m² | - |
| 1777949525 | 22.22° C | 33% | 1004.5 hPa | 0 mm | - | 12 W/m² | - |
| 1777949223 | 22.22° C | 32% | 1004.5 hPa | 0 mm | - | 15 W/m² | - |
| 1777948920 | 22.78° C | 33% | 1004.5 hPa | 0 mm | - | 18 W/m² | - |
| 1777948617 | 22.78° C | 33% | 1004.2 hPa | 0 mm | - | 21 W/m² | - |
| 1777948314 | 22.78° C | 33% | 1004.2 hPa | 0 mm | - | 24 W/m² | - |
| 1777948012 | 23.33° C | 33% | 1004.2 hPa | 0 mm | - | 28 W/m² | - |
| 1777947709 | 23.89° C | 33% | 1004.1 hPa | 0 mm | - | 32 W/m² | - |
| 1777947405 | 23.89° C | 32% | 1004.2 hPa | 0 mm | - | 36 W/m² | - |
| 1777947102 | 23.89° C | 33% | 1004.2 hPa | 0 mm | - | 39 W/m² | - |
| 1777946797 | 24.44° C | 33% | 1004.1 hPa | 0 mm | - | 41 W/m² | - |
| 1777946494 | 25° C | 32% | 1004.3 hPa | 0 mm | - | 50 W/m² | - |
| 1777946191 | 25° C | 32% | 1004 hPa | 0 mm | - | 54 W/m² | - |
| 1777945888 | 25° C | 32% | 1004.2 hPa | 0 mm | - | 60 W/m² | - |
| 1777945584 | 25.56° C | 32% | 1004.1 hPa | 0 mm | - | 67 W/m² | - |
| 1777945281 | 25.56° C | 30% | 1004.2 hPa | 0 mm | - | 65 W/m² | - |
| 1777944979 | 25.56° C | 30% | 1004 hPa | 0 mm | - | 55 W/m² | - |
| 1777944676 | 25.56° C | 29% | 1004 hPa | 0 mm | - | 65 W/m² | - |
| 1777944374 | 25.56° C | 30% | 1004.2 hPa | 0 mm | - | 76 W/m² | - |
| 1777944071 | 25° C | 30% | 1004.1 hPa | 0 mm | - | 84 W/m² | - |
| 1777943766 | 25.56° C | 30% | 1004.4 hPa | 0 mm | - | 66 W/m² | - |
| 1777943464 | 25.56° C | 30% | 1004 hPa | 0 mm | - | 72 W/m² | - |
* Rain latest hour (hover to see other rain measurements)
** Current wind speed in m/s (hover to see current wind gust speed)